{"data":{"norad_id":60233,"intl_designator":"2024-127A","name":"TURKSAT 6A","alt_names":[],"object_type":"PAYLOAD","status":"ACTIVE","operator":null,"country":"TURK","launch_date":"2024-07-08","launch_site_code":"AFETR","launch_vehicle":null,"mission":null,"orbit_class":"UNKNOWN","rcs_meters":null,"size_class":null,"mass_kg":null,"dimensions":null,"purposes":["comms"],"wikipedia_slug":null,"has_3d_model":false,"image_url":null,"decayed_at":null,"tle_current":{"epoch":"2026-09-19T05:11:43.009728Z","epoch_age_seconds":129192,"freshness":"FRESH","line1":"1 60233U 24127A   26262.21647002  .00000142  00000+0  00000+0 0  9995","line2":"2 60233   0.0377 226.3093 0004326 332.7312 279.0075  1.00274394  7966","mean_motion":1.00274394,"eccentricity":0.0004326,"inclination_deg":0.0377,"raan_deg":226.3093,"arg_perigee_deg":332.7312,"mean_anomaly_deg":279.0075,"bstar":0,"rev_number":796,"period_min":1436.0595387891,"perigee_km":35767.623432989,"apogee_km":35804.10372629,"semimajor_km":42164.00057964,"source":"CELESTRAK","updated_at":"2026-09-20T09:00:35.338143Z"}}}